Location: Alpha Ridge Park
(39.3209°N, 76.9128°W)
Time: 09:04:33
(UTC-04:00)

AO-92 - Pass Details

Date: 05 July 2022
Orbit: 469 x 481 km, 97.4° (Epoch: 13 August)

Event Time Altitude Azimuth Distance (km) Brightness Sun altitude
Exits shadow 23:21:52 68° 305° (NW) 522 ? -22.8°
Drops below altitude 10° 23:25:08 10° 345° (NNW) 1,666 ? -23.1°
Sets 23:27:13 0° 347° (NNW) 2,552 ? -23.3°
